| time (UTC) | temp F | wind direction | speed knots | gust knots | rain 1hr in | rain 24hr in | rain mn in | humidity % | barometer mb |
| 20260508044530 | 54 | 0 | 0.0 | 0.0 | 0.01 | 0.37 | 0.01 | 94 | 1014.0 |
| 20260508044010 | 54 | 0 | 0.0 | 0.0 | 0.01 | 0.37 | 0.01 | 94 | 1013.9 |
| 20260508043512 | 54 | 0 | 0.0 | 0.0 | 0.01 | 0.37 | 0.01 | 94 | 1014.0 |
| 20260508043032 | 54 | 0 | 0.0 | 0.0 | 0.01 | 0.37 | 0.01 | 94 | 1013.9 |
| 20260508042511 | 54 | 0 | 0.0 | 0.0 | 0.01 | 0.37 | 0.01 | 94 | 1014.0 |
| 20260508042012 | 54 | 0 | 0.0 | 0.0 | 0.01 | 0.37 | 0.01 | 94 | 1013.8 |
| 20260508041530 | 54 | 0 | 0.0 | 0.0 | 0.01 | 0.37 | 0.01 | 94 | 1013.9 |
| 20260508041011 | 54 | 0 | 0.0 | 0.0 | 0.01 | 0.37 | 0.01 | 94 | 1014.0 |
| 20260508040512 | 54 | 0 | 0.0 | 0.0 | 0.01 | 0.37 | 0.01 | 94 | 1014.0 |
| 20260508040037 | 54 | 0 | 0.0 | 0.0 | 0.00 | 0.36 | 0.00 | 94 | 1014.0 |
| 20260508035509 | 54 | 0 | 0.0 | 0.0 | 0.00 | 0.38 | 0.36 | 94 | 1013.9 |
| 20260508035014 | 54 | 0 | 0.0 | 0.0 | 0.00 | 0.38 | 0.36 | 94 | 1013.9 |
| 20260508034531 | 54 | 0 | 0.0 | 0.0 | 0.00 | 0.38 | 0.36 | 94 | 1013.7 |
| 20260508034012 | 54 | 0 | 0.0 | 0.0 | 0.00 | 0.38 | 0.36 | 94 | 1013.6 |
| 20260508033512 | 54 | 0 | 0.0 | 0.0 | 0.00 | 0.38 | 0.36 | 94 | 1013.5 |
| 20260508033033 | 54 | 0 | 0.0 | 0.0 | 0.01 | 0.38 | 0.36 | 94 | 1013.3 |
| 20260508032512 | 54 | 0 | 0.0 | 0.0 | 0.01 | 0.38 | 0.36 | 94 | 1013.3 |
| 20260508032014 | 54 | 0 | 0.0 | 0.0 | 0.01 | 0.38 | 0.36 | 94 | 1013.2 |
| 20260508031533 | 54 | 0 | 0.0 | 0.0 | 0.01 | 0.38 | 0.36 | 94 | 1013.0 |
| 20260508031010 | 54 | 0 | 0.0 | 0.0 | 0.01 | 0.38 | 0.36 | 94 | 1013.1 |
| 20260508030514 | 54 | 0 | 0.0 | 0.0 | 0.01 | 0.38 | 0.36 | 94 | 1013.3 |
| 20260508030033 | 54 | 0 | 0.0 | 0.0 | 0.01 | 0.38 | 0.36 | 94 | 1013.3 |
| 20260508025511 | 54 | 0 | 0.0 | 0.0 | 0.01 | 0.38 | 0.36 | 94 | 1012.9 |
| 20260508025010 | 54 | 0 | 0.0 | 0.0 | 0.01 | 0.38 | 0.36 | 94 | 1013.0 |
| 20260508024542 | 54 | 0 | 0.0 | 0.9 | 0.01 | 0.38 | 0.36 | 94 | 1012.9 |
| 20260508024014 | 54 | 0 | 0.0 | 0.9 | 0.01 | 0.38 | 0.36 | 94 | 1013.0 |
| 20260508023511 | 54 | 0 | 0.0 | 0.9 | 0.01 | 0.38 | 0.36 | 94 | 1012.9 |
| 20260508023030 | 54 | 0 | 0.0 | 0.0 | 0.00 | 0.37 | 0.35 | 94 | 1012.8 |
| 20260508022510 | 54 | 0 | 0.0 | 0.0 | 0.00 | 0.37 | 0.35 | 94 | 1012.8 |
| 20260508022014 | 55 | 0 | 0.0 | 0.0 | 0.00 | 0.37 | 0.35 | 94 | 1012.8 |
| 20260508021535 | 55 | 0 | 0.0 | 0.0 | 0.00 | 0.37 | 0.35 | 94 | 1012.7 |
| 20260508021015 | 55 | 0 | 0.0 | 0.0 | 0.00 | 0.37 | 0.35 | 94 | 1012.7 |
| 20260508020513 | 55 | 0 | 0.0 | 0.0 | 0.00 | 0.37 | 0.35 | 93 | 1012.7 |
| 20260508020030 | 55 | 0 | 0.0 | 0.0 | 0.01 | 0.37 | 0.35 | 94 | 1012.6 |
| 20260508015508 | 55 | 0 | 0.0 | 0.0 | 0.01 | 0.37 | 0.35 | 93 | 1012.6 |
| 20260508015014 | 55 | 0 | 0.0 | 0.0 | 0.01 | 0.37 | 0.35 | 93 | 1012.7 |
| 20260508014545 | 55 | 0 | 0.0 | 0.0 | 0.01 | 0.37 | 0.35 | 93 | 1012.7 |
| 20260508014008 | 55 | 0 | 0.0 | 0.0 | 0.01 | 0.37 | 0.35 | 93 | 1012.6 |
| 20260508013512 | 55 | 0 | 0.0 | 0.0 | 0.01 | 0.37 | 0.35 | 93 | 1012.4 |
| 20260508013033 | 55 | 0 | 0.0 | 0.0 | 0.01 | 0.37 | 0.35 | 93 | 1012.3 |
| 20260508012510 | 55 | 0 | 0.0 | 0.0 | 0.01 | 0.37 | 0.35 | 93 | 1011.9 |
| 20260508012010 | 55 | 0 | 0.0 | 0.0 | 0.01 | 0.37 | 0.35 | 93 | 1011.7 |
| 20260508011535 | 55 | 0 | 0.0 | 0.0 | 0.01 | 0.37 | 0.35 | 93 | 1011.6 |
| 20260508011009 | 55 | 0 | 0.0 | 0.0 | 0.01 | 0.37 | 0.35 | 93 | 1011.7 |
| 20260508010511 | 55 | 0 | 0.0 | 0.0 | 0.01 | 0.37 | 0.35 | 93 | 1011.8 |
| 20260508010033 | 55 | 0 | 0.0 | 0.0 | 0.00 | 0.36 | 0.34 | 93 | 1011.7 |
| 20260508005515 | 55 | 0 | 0.0 | 0.0 | 0.00 | 0.36 | 0.34 | 93 | 1011.8 |
| 20260508005017 | 55 | 0 | 0.0 | 0.0 | 0.00 | 0.36 | 0.34 | 93 | 1011.7 |
| 20260508004531 | 55 | 0 | 0.0 | 1.7 | 0.00 | 0.36 | 0.34 | 93 | 1011.8 |
| 20260508004013 | 55 | 0 | 0.0 | 1.7 | 0.00 | 0.36 | 0.34 | 92 | 1011.6 |
| 20260508003514 | 55 | 0 | 0.0 | 1.7 | 0.00 | 0.36 | 0.34 | 92 | 1011.7 |
| 20260508003051 | 55 | 273 | 0.0 | 1.7 | 0.00 | 0.36 | 0.34 | 92 | 1011.5 |
| 20260508002513 | 55 | 0 | 0.0 | 0.9 | 0.00 | 0.36 | 0.34 | 92 | 1011.6 |
| 20260508002017 | 55 | 0 | 0.0 | 0.0 | 0.01 | 0.36 | 0.34 | 92 | 1012.1 |
| 20260508001530 | 55 | 0 | 0.0 | 0.9 | 0.01 | 0.36 | 0.34 | 92 | 1011.8 |
| 20260508001010 | 55 | 0 | 0.0 | 0.9 | 0.01 | 0.36 | 0.34 | 92 | 1011.7 |
| 20260508000513 | 55 | 0 | 0.0 | 1.7 | 0.01 | 0.36 | 0.34 | 92 | 1011.5 |
| 20260508000029 | 55 | 0 | 0.0 | 1.7 | 0.01 | 0.36 | 0.34 | 92 | 1011.1 |
| 20260507235514 | 55 | 0 | 0.0 | 1.7 | 0.01 | 0.36 | 0.34 | 92 | 1010.8 |
| 20260507235010 | 55 | 0 | 0.0 | 1.7 | 0.01 | 0.36 | 0.34 | 92 | 1010.6 |
| 20260507234530 | 56 | 0 | 0.0 | 1.7 | 0.01 | 0.36 | 0.34 | 92 | 1010.4 |
| 20260507234009 | 55 | 0 | 0.0 | 1.7 | 0.01 | 0.36 | 0.34 | 92 | 1010.6 |
| 20260507233510 | 56 | 0 | 0.0 | 2.6 | 0.01 | 0.36 | 0.34 | 92 | 1010.7 |
| 20260507233033 | 55 | 0 | 0.0 | 2.6 | 0.01 | 0.36 | 0.34 | 92 | 1010.8 |
| 20260507232510 | 56 | 0 | 0.0 | 0.9 | 0.01 | 0.36 | 0.34 | 92 | 1010.9 |
| 20260507232015 | 55 | 0 | 0.0 | 3.5 | 0.00 | 0.35 | 0.33 | 92 | 1010.8 |
| 20260507231531 | 55 | 0 | 0.0 | 3.5 | 0.00 | 0.35 | 0.33 | 92 | 1010.9 |
| 20260507231014 | 55 | 0 | 0.0 | 2.6 | 0.00 | 0.35 | 0.33 | 92 | 1010.8 |
| 20260507230512 | 55 | 124 | 0.0 | 2.6 | 0.00 | 0.35 | 0.33 | 92 | 1010.8 |
| 20260507230030 | 56 | 0 | 0.0 | 1.7 | 0.00 | 0.35 | 0.33 | 92 | 1010.6 |
| 20260507225516 | 56 | 0 | 0.0 | 6.1 | 0.00 | 0.35 | 0.33 | 92 | 1010.6 |
| 20260507225009 | 56 | 0 | 0.0 | 7.8 | 0.01 | 0.35 | 0.33 | 92 | 1010.8 |
| 20260507224541 | 56 | 0 | 1.7 | 7.8 | 0.01 | 0.35 | 0.33 | 92 | 1010.6 |
| 20260507224008 | 56 | 0 | 0.0 | 1.7 | 0.01 | 0.35 | 0.33 | 92 | 1010.3 |
| 20260507223511 | 56 | 0 | 0.0 | 4.3 | 0.01 | 0.35 | 0.33 | 92 | 1010.2 |
| 20260507223029 | 56 | 0 | 0.0 | 4.3 | 0.01 | 0.35 | 0.33 | 92 | 1010.3 |
| 20260507222508 | 56 | 0 | 0.0 | 2.6 | 0.01 | 0.35 | 0.33 | 92 | 1010.1 |
| 20260507222010 | 56 | 0 | 0.0 | 4.3 | 0.01 | 0.35 | 0.33 | 93 | 1010.0 |
| 20260507221529 | 56 | 329 | 0.9 | 4.3 | 0.01 | 0.35 | 0.33 | 93 | 1010.1 |
| 20260507221012 | 56 | 141 | 0.0 | 3.5 | 0.01 | 0.35 | 0.33 | 93 | 1010.1 |
| 20260507220513 | 55 | 0 | 0.0 | 1.7 | 0.01 | 0.35 | 0.33 | 93 | 1010.1 |
| 20260507220032 | 55 | 0 | 0.0 | 6.1 | 0.01 | 0.35 | 0.33 | 93 | 1010.3 |
| 20260507215512 | 55 | 0 | 0.0 | 6.1 | 0.00 | 0.34 | 0.32 | 93 | 1010.3 |
| 20260507215013 | 55 | 0 | 0.9 | 7.0 | 0.00 | 0.34 | 0.32 | 93 | 1010.4 |
| 20260507214530 | 55 | 0 | 0.0 | 7.0 | 0.00 | 0.34 | 0.32 | 93 | 1010.4 |
| 20260507214008 | 55 | 72 | 0.0 | 7.0 | 0.01 | 0.34 | 0.32 | 93 | 1010.3 |
| 20260507213509 | 55 | 233 | 1.7 | 7.0 | 0.01 | 0.34 | 0.32 | 93 | 1010.2 |
| 20260507213032 | 55 | 71 | 1.7 | 7.0 | 0.01 | 0.34 | 0.32 | 93 | 1010.0 |
| 20260507212508 | 55 | 75 | 0.0 | 7.8 | 0.01 | 0.34 | 0.32 | 94 | 1010.2 |
| 20260507212012 | 55 | 0 | 0.0 | 7.8 | 0.01 | 0.34 | 0.32 | 94 | 1010.1 |
| 20260507211530 | 55 | 0 | 1.7 | 7.8 | 0.01 | 0.34 | 0.32 | 93 | 1010.1 |
| 20260507211010 | 56 | 37 | 0.0 | 5.2 | 0.01 | 0.34 | 0.32 | 94 | 1010.0 |
| 20260507210511 | 56 | 0 | 0.9 | 7.8 | 0.01 | 0.34 | 0.32 | 94 | 1009.9 |
| 20260507210035 | 56 | 314 | 0.0 | 7.8 | 0.01 | 0.34 | 0.32 | 94 | 1009.8 |
| 20260507205510 | 56 | 307 | 0.9 | 7.8 | 0.01 | 0.34 | 0.32 | 94 | 1009.7 |
| 20260507205011 | 57 | 0 | 0.9 | 7.0 | 0.01 | 0.34 | 0.32 | 94 | 1009.7 |
| 20260507204531 | 57 | 0 | 0.0 | 9.6 | 0.00 | 0.33 | 0.31 | 94 | 1009.4 |
| 20260507204012 | 57 | 0 | 0.9 | 9.6 | 0.00 | 0.33 | 0.31 | 94 | 1009.5 |
| 20260507203514 | 57 | 0 | 0.9 | 7.0 | 0.01 | 0.33 | 0.31 | 95 | 1009.5 |
| 20260507203028 | 58 | 47 | 1.7 | 8.7 | 0.01 | 0.33 | 0.31 | 94 | 1009.5 |
| 20260507202509 | 58 | 0 | 0.0 | 8.7 | 0.01 | 0.33 | 0.31 | 95 | 1009.4 |
| 20260507202012 | 58 | 0 | 0.0 | 10.4 | 0.01 | 0.33 | 0.31 | 95 | 1009.4 |
| 20260507201533 | 57 | 63 | 1.7 | 10.4 | 0.01 | 0.33 | 0.31 | 95 | 1009.4 |
| 20260507201014 | 57 | 0 | 0.0 | 4.3 | 0.01 | 0.33 | 0.31 | 95 | 1009.4 |
| 20260507200510 | 57 | 343 | 0.0 | 9.6 | 0.01 | 0.33 | 0.31 | 95 | 1009.5 |
| 20260507200031 | 57 | 351 | 1.7 | 9.6 | 0.01 | 0.33 | 0.31 | 95 | 1009.5 |
| 20260507195512 | 58 | 295 | 0.0 | 7.0 | 0.01 | 0.38 | 0.31 | 95 | 1009.4 |
| 20260507195010 | 58 | 32 | 0.0 | 7.0 | 0.01 | 0.38 | 0.31 | 95 | 1009.4 |
| 20260507194537 | 58 | 0 | 1.7 | 5.2 | 0.01 | 0.38 | 0.31 | 95 | 1009.4 |
| 20260507194010 | 58 | 0 | 0.0 | 6.1 | 0.01 | 0.38 | 0.31 | 95 | 1009.4 |
| 20260507193510 | 58 | 325 | 1.7 | 6.1 | 0.00 | 0.37 | 0.30 | 95 | 1009.3 |
| 20260507193035 | 58 | 5 | 1.7 | 5.2 | 0.00 | 0.37 | 0.30 | 95 | 1009.3 |
| 20260507192510 | 58 | 36 | 0.0 | 7.8 | 0.01 | 0.37 | 0.30 | 95 | 1009.1 |
| 20260507192014 | 58 | 341 | 0.9 | 7.8 | 0.01 | 0.37 | 0.30 | 95 | 1009.1 |
| 20260507191530 | 59 | 309 | 0.9 | 7.8 | 0.01 | 0.37 | 0.30 | 95 | 1009.4 |
| 20260507191011 | 59 | 26 | 1.7 | 7.8 | 0.01 | 0.37 | 0.30 | 95 | 1009.5 |
| 20260507190510 | 59 | 64 | 0.0 | 7.8 | 0.01 | 0.37 | 0.30 | 95 | 1009.6 |
| 20260507190035 | 59 | 0 | 0.9 | 7.8 | 0.01 | 0.37 | 0.30 | 95 | 1009.3 |
| 20260507185509 | 60 | 0 | 0.0 | 6.1 | 0.01 | 0.37 | 0.30 | 95 | 1009.1 |
| 20260507185011 | 60 | 326 | 0.0 | 6.1 | 0.01 | 0.37 | 0.30 | 95 | 1008.7 |
| 20260507184529 | 60 | 156 | 0.9 | 5.2 | 0.01 | 0.37 | 0.30 | 95 | 1008.3 |
| 20260507184012 | 61 | 342 | 0.9 | 7.0 | 0.01 | 0.37 | 0.30 | 95 | 1009.0 |
| 20260507183514 | 61 | 38 | 1.7 | 7.0 | 0.01 | 0.37 | 0.30 | 95 | 1009.1 |
| 20260507183032 | 62 | 0 | 0.0 | 4.3 | 0.02 | 0.37 | 0.30 | 95 | 1009.1 |
| 20260507182512 | 63 | 0 | 0.0 | 6.1 | 0.01 | 0.36 | 0.29 | 95 | 1009.2 |
| 20260507182014 | 63 | 0 | 1.7 | 6.1 | 0.01 | 0.36 | 0.29 | 95 | 1008.8 |
| 20260507181531 | 64 | 27 | 0.9 | 5.2 | 0.01 | 0.36 | 0.29 | 95 | 1008.3 |
| 20260507181016 | 65 | 18 | 0.0 | 7.0 | 0.01 | 0.36 | 0.29 | 94 | 1008.6 |
| 20260507180511 | 67 | 65 | 1.7 | 7.0 | 0.01 | 0.36 | 0.29 | 94 | 1008.6 |
| 20260507180040 | 69 | 40 | 0.9 | 6.1 | 0.01 | 0.36 | 0.29 | 96 | 1008.8 |
| 20260507175511 | 70 | 0 | 0.0 | 0.9 | 0.01 | 0.36 | 0.29 | 97 | 1008.4 |
| 20260507175012 | 70 | 0 | 0.0 | 1.7 | 0.01 | 0.36 | 0.29 | 97 | 1008.6 |
| 20260507174530 | 70 | 0 | 0.0 | 1.7 | 0.01 | 0.36 | 0.29 | 97 | 1008.8 |
| 20260507174009 | 70 | 0 | 0.0 | 1.7 | 0.01 | 0.36 | 0.29 | 97 | 1008.8 |
| 20260507173514 | 70 | 0 | 0.0 | 0.9 | 0.01 | 0.36 | 0.29 | 97 | 1008.7 |
| 20260507173034 | 70 | 0 | 0.0 | 2.6 | 0.01 | 0.35 | 0.28 | 97 | 1008.6 |
| 20260507172508 | 70 | 0 | 0.0 | 2.6 | 0.01 | 0.35 | 0.28 | 97 | 1008.4 |
| 20260507172013 | 70 | 0 | 0.0 | 0.9 | 0.01 | 0.35 | 0.28 | 97 | 1008.5 |
| 20260507171532 | 70 | 0 | 0.0 | 2.6 | 0.01 | 0.35 | 0.28 | 97 | 1008.2 |
| 20260507171011 | 70 | 0 | 0.0 | 4.3 | 0.01 | 0.35 | 0.28 | 97 | 1008.1 |
| 20260507170513 | 69 | 0 | 0.0 | 4.3 | 0.01 | 0.35 | 0.28 | 97 | 1008.1 |
| 20260507170030 | 69 | 207 | 1.7 | 4.3 | 0.01 | 0.35 | 0.28 | 97 | 1008.2 |
| 20260507165510 | 69 | 0 | 0.9 | 2.6 | 0.01 | 0.35 | 0.28 | 97 | 1008.3 |
| 20260507165016 | 69 | 0 | 0.0 | 1.7 | 0.02 | 0.35 | 0.28 | 97 | 1008.3 |
| 20260507164531 | 69 | 0 | 0.0 | 1.7 | 0.02 | 0.35 | 0.28 | 97 | 1008.6 |
| 20260507164010 | 69 | 124 | 0.0 | 0.9 | 0.02 | 0.35 | 0.28 | 97 | 1008.7 |
| 20260507163512 | 69 | 0 | 0.0 | 0.9 | 0.02 | 0.35 | 0.28 | 97 | 1008.9 |
| 20260507163032 | 69 | 0 | 0.0 | 2.6 | 0.01 | 0.34 | 0.27 | 97 | 1009.4 |
| 20260507162510 | 69 | 0 | 0.0 | 5.2 | 0.01 | 0.34 | 0.27 | 97 | 1009.4 |
| 20260507162018 | 68 | 0 | 0.0 | 5.2 | 0.01 | 0.34 | 0.27 | 97 | 1009.5 |
| 20260507161529 | 68 | 190 | 0.0 | 2.6 | 0.01 | 0.34 | 0.27 | 97 | 1009.6 |
| 20260507161009 | 68 | 0 | 0.0 | 2.6 | 0.01 | 0.34 | 0.27 | 97 | 1009.8 |
| 20260507160512 | 68 | 0 | 0.0 | 2.6 | 0.02 | 0.34 | 0.27 | 97 | 1009.8 |
| 20260507160034 | 68 | 0 | 0.0 | 0.9 | 0.02 | 0.34 | 0.27 | 97 | 1010.0 |
| 20260507155513 | 68 | 0 | 0.0 | 1.7 | 0.02 | 0.34 | 0.27 | 97 | 1010.0 |
| 20260507155016 | 69 | 0 | 0.0 | 1.7 | 0.01 | 0.33 | 0.26 | 97 | 1009.8 |
| 20260507154532 | 69 | 0 | 0.0 | 1.7 | 0.01 | 0.33 | 0.26 | 97 | 1009.7 |
| 20260507154010 | 68 | 0 | 0.0 | 1.7 | 0.01 | 0.33 | 0.26 | 97 | 1009.4 |
| 20260507153511 | 68 | 0 | 0.0 | 1.7 | 0.01 | 0.33 | 0.26 | 97 | 1009.2 |
| 20260507153033 | 68 | 115 | 0.0 | 3.5 | 0.02 | 0.33 | 0.26 | 97 | 1009.2 |
| 20260507152512 | 68 | 0 | 0.0 | 3.5 | 0.02 | 0.33 | 0.26 | 97 | 1009.4 |
| 20260507152011 | 68 | 182 | 0.0 | 0.9 | 0.02 | 0.33 | 0.26 | 97 | 1009.6 |
| 20260507151530 | 68 | 0 | 0.0 | 0.0 | 0.02 | 0.33 | 0.26 | 97 | 1009.4 |
| 20260507151010 | 67 | 0 | 0.0 | 1.7 | 0.01 | 0.32 | 0.25 | 97 | 1009.3 |
| 20260507150513 | 67 | 0 | 0.0 | 3.5 | 0.01 | 0.32 | 0.25 | 97 | 1009.6 |
| 20260507150030 | 67 | 0 | 0.0 | 3.5 | 0.01 | 0.32 | 0.25 | 97 | 1009.6 |
| 20260507145512 | 67 | 283 | 0.9 | 3.5 | 0.01 | 0.32 | 0.25 | 97 | 1009.7 |
| 20260507145012 | 67 | 0 | 0.0 | 3.5 | 0.02 | 0.32 | 0.25 | 97 | 1009.9 |
| 20260507144534 | 67 | 237 | 0.0 | 3.5 | 0.02 | 0.32 | 0.25 | 97 | 1009.9 |
| 20260507144010 | 67 | 257 | 0.0 | 3.5 | 0.02 | 0.32 | 0.25 | 97 | 1009.7 |
| 20260507143513 | 67 | 0 | 0.0 | 4.3 | 0.01 | 0.31 | 0.24 | 97 | 1009.8 |
| 20260507143033 | 67 | 0 | 0.0 | 4.3 | 0.01 | 0.31 | 0.24 | 97 | 1009.9 |
| 20260507142511 | 67 | 199 | 0.0 | 4.3 | 0.01 | 0.31 | 0.24 | 97 | 1009.7 |
| 20260507142010 | 67 | 210 | 0.9 | 2.6 | 0.01 | 0.31 | 0.24 | 97 | 1009.9 |
| 20260507141530 | 67 | 0 | 0.0 | 1.7 | 0.02 | 0.31 | 0.24 | 97 | 1010.0 |
| 20260507141012 | 67 | 0 | 0.0 | 0.0 | 0.02 | 0.31 | 0.24 | 97 | 1010.2 |
| 20260507140512 | 67 | 0 | 0.0 | 0.0 | 0.02 | 0.31 | 0.24 | 97 | 1010.3 |
| 20260507140033 | 67 | 0 | 0.0 | 1.7 | 0.02 | 0.31 | 0.24 | 97 | 1010.2 |
| 20260507135510 | 67 | 0 | 0.0 | 2.6 | 0.01 | 0.30 | 0.23 | 97 | 1010.1 |
| 20260507135015 | 67 | 0 | 0.0 | 2.6 | 0.01 | 0.30 | 0.23 | 97 | 1010.1 |
| 20260507134530 | 67 | 0 | 0.0 | 0.0 | 0.01 | 0.30 | 0.23 | 97 | 1010.2 |
| 20260507134012 | 67 | 0 | 0.0 | 3.5 | 0.01 | 0.30 | 0.23 | 97 | 1010.2 |
| 20260507133515 | 67 | 0 | 0.0 | 3.5 | 0.01 | 0.30 | 0.23 | 97 | 1010.3 |
| 20260507133033 | 67 | 0 | 0.0 | 3.5 | 0.01 | 0.30 | 0.23 | 97 | 1010.2 |
| 20260507132510 | 67 | 0 | 0.0 | 3.5 | 0.02 | 0.30 | 0.23 | 97 | 1010.2 |
| 20260507132009 | 67 | 0 | 0.0 | 3.5 | 0.02 | 0.30 | 0.23 | 97 | 1010.2 |
| 20260507131539 | 67 | 0 | 0.0 | 2.6 | 0.01 | 0.29 | 0.22 | 97 | 1010.3 |
| 20260507131011 | 67 | 0 | 0.0 | 2.6 | 0.01 | 0.29 | 0.22 | 97 | 1010.2 |
| 20260507130513 | 67 | 0 | 0.0 | 2.6 | 0.01 | 0.29 | 0.22 | 97 | 1010.1 |
| 20260507130030 | 67 | 0 | 0.0 | 2.6 | 0.01 | 0.29 | 0.22 | 96 | 1010.0 |
| 20260507125511 | 67 | 213 | 0.0 | 2.6 | 0.01 | 0.29 | 0.22 | 96 | 1010.1 |
| 20260507125011 | 66 | 0 | 0.0 | 3.5 | 0.01 | 0.29 | 0.22 | 96 | 1010.1 |
| 20260507124533 | 66 | 0 | 0.0 | 3.5 | 0.02 | 0.29 | 0.22 | 96 | 1010.2 |
| 20260507124014 | 66 | 0 | 0.0 | 3.5 | 0.02 | 0.29 | 0.22 | 96 | 1010.1 |
| 20260507123516 | 66 | 231 | 0.9 | 3.5 | 0.02 | 0.29 | 0.22 | 96 | 1010.1 |
| 20260507123030 | 66 | 0 | 0.9 | 3.5 | 0.02 | 0.29 | 0.22 | 96 | 1010.1 |
| 20260507122514 | 66 | 196 | 0.9 | 3.5 | 0.01 | 0.28 | 0.21 | 96 | 1010.2 |
| 20260507122015 | 66 | 0 | 0.0 | 3.5 | 0.01 | 0.28 | 0.21 | 96 | 1010.2 |
| 20260507121531 | 66 | 154 | 0.0 | 3.5 | 0.01 | 0.28 | 0.21 | 96 | 1010.2 |
| 20260507121012 | 66 | 0 | 0.0 | 3.5 | 0.01 | 0.28 | 0.21 | 96 | 1010.2 |
| 20260507120511 | 66 | 0 | 0.0 | 2.6 | 0.01 | 0.28 | 0.21 | 96 | 1010.4 |
| 20260507120032 | 66 | 0 | 0.0 | 5.2 | 0.02 | 0.28 | 0.21 | 96 | 1010.4 |
| 20260507115513 | 66 | 68 | 0.9 | 5.2 | 0.02 | 0.28 | 0.21 | 96 | 1010.4 |
| 20260507115016 | 66 | 0 | 0.0 | 2.6 | 0.02 | 0.28 | 0.21 | 96 | 1010.4 |
| 20260507114532 | 66 | 196 | 0.0 | 2.6 | 0.01 | 0.27 | 0.20 | 96 | 1010.6 |
| 20260507114010 | 66 | 0 | 0.0 | 0.0 | 0.01 | 0.27 | 0.20 | 96 | 1010.7 |
| 20260507113510 | 66 | 0 | 0.0 | 0.0 | 0.01 | 0.27 | 0.20 | 96 | 1010.7 |
| 20260507113036 | 66 | 0 | 0.0 | 2.6 | 0.02 | 0.27 | 0.20 | 96 | 1010.9 |
| 20260507112512 | 66 | 0 | 0.0 | 2.6 | 0.02 | 0.27 | 0.20 | 96 | 1010.7 |
| 20260507112014 | 66 | 0 | 0.0 | 0.9 | 0.02 | 0.27 | 0.20 | 96 | 1010.8 |
| 20260507111530 | 66 | 0 | 0.0 | 2.6 | 0.02 | 0.27 | 0.20 | 96 | 1010.7 |
| 20260507111008 | 65 | 0 | 0.0 | 2.6 | 0.02 | 0.27 | 0.20 | 96 | 1010.8 |
| 20260507110509 | 65 | 0 | 0.0 | 2.6 | 0.01 | 0.26 | 0.19 | 96 | 1010.8 |
| 20260507110029 | 65 | 0 | 0.0 | 2.6 | 0.01 | 0.26 | 0.19 | 96 | 1010.7 |
| 20260507105509 | 65 | 189 | 0.0 | 2.6 | 0.01 | 0.26 | 0.19 | 96 | 1010.7 |
| 20260507105016 | 65 | 244 | 0.0 | 1.7 | 0.02 | 0.26 | 0.19 | 96 | 1010.5 |
| 20260507104534 | 65 | 0 | 0.0 | 0.9 | 0.02 | 0.26 | 0.19 | 96 | 1010.5 |
| 20260507104010 | 65 | 0 | 0.0 | 0.9 | 0.02 | 0.26 | 0.19 | 96 | 1010.5 |
| 20260507103509 | 65 | 0 | 0.0 | 2.6 | 0.02 | 0.26 | 0.19 | 96 | 1010.5 |
| 20260507103030 | 65 | 0 | 0.0 | 2.6 | 0.01 | 0.25 | 0.18 | 96 | 1010.5 |
| 20260507102509 | 65 | 0 | 0.0 | 2.6 | 0.02 | 0.25 | 0.18 | 96 | 1010.6 |
| 20260507102015 | 65 | 0 | 0.0 | 4.3 | 0.02 | 0.25 | 0.18 | 96 | 1010.4 |
| 20260507101552 | 65 | 0 | 0.0 | 4.3 | 0.02 | 0.25 | 0.18 | 96 | 1010.3 |
| 20260507101011 | 65 | 0 | 0.0 | 4.3 | 0.02 | 0.25 | 0.18 | 96 | 1010.6 |
| 20260507100509 | 65 | 0 | 0.0 | 2.6 | 0.02 | 0.25 | 0.18 | 96 | 1010.6 |
| 20260507100034 | 65 | 0 | 0.0 | 2.6 | 0.02 | 0.25 | 0.18 | 96 | 1010.4 |
| 20260507095510 | 65 | 0 | 0.0 | 2.6 | 0.02 | 0.25 | 0.18 | 96 | 1010.4 |
| 20260507095014 | 65 | 0 | 0.0 | 1.7 | 0.02 | 0.24 | 0.17 | 95 | 1010.3 |
| 20260507094531 | 65 | 0 | 0.0 | 2.6 | 0.02 | 0.24 | 0.17 | 95 | 1010.2 |
| 20260507094009 | 65 | 0 | 0.0 | 5.2 | 0.02 | 0.24 | 0.17 | 95 | 1010.5 |
| 20260507093516 | 65 | 173 | 0.9 | 5.2 | 0.02 | 0.24 | 0.17 | 95 | 1010.4 |
| 20260507093032 | 65 | 0 | 0.0 | 2.6 | 0.02 | 0.24 | 0.17 | 95 | 1010.4 |
| 20260507092514 | 65 | 0 | 0.0 | 5.2 | 0.02 | 0.23 | 0.16 | 95 | 1010.2 |
| 20260507092014 | 65 | 0 | 0.9 | 5.2 | 0.02 | 0.23 | 0.16 | 95 | 1010.3 |
| 20260507091550 | 65 | 210 | 0.0 | 5.2 | 0.02 | 0.23 | 0.16 | 95 | 1010.1 |
| 20260507091011 | 65 | 0 | 0.9 | 7.8 | 0.02 | 0.23 | 0.16 | 95 | 1010.4 |
| 20260507090511 | 65 | 180 | 1.7 | 7.8 | 0.02 | 0.23 | 0.16 | 95 | 1010.4 |
| 20260507090033 | 65 | 0 | 0.0 | 1.7 | 0.03 | 0.23 | 0.16 | 95 | 1010.4 |
| 20260507085509 | 65 | 135 | 0.0 | 1.7 | 0.03 | 0.23 | 0.16 | 95 | 1010.3 |
| 20260507085012 | 65 | 0 | 0.0 | 1.7 | 0.02 | 0.22 | 0.15 | 95 | 1010.5 |
| 20260507084530 | 65 | 0 | 0.0 | 1.7 | 0.02 | 0.22 | 0.15 | 95 | 1010.8 |
| 20260507084012 | 65 | 0 | 0.0 | 0.9 | 0.02 | 0.22 | 0.15 | 95 | 1010.7 |
| 20260507083513 | 65 | 0 | 0.0 | 0.9 | 0.03 | 0.22 | 0.15 | 95 | 1010.9 |
| 20260507083032 | 65 | 0 | 0.0 | 0.0 | 0.02 | 0.21 | 0.14 | 95 | 1011.2 |
| 20260507082508 | 65 | 0 | 0.0 | 0.0 | 0.02 | 0.21 | 0.14 | 94 | 1011.1 |
| 20260507082013 | 65 | 0 | 0.0 | 0.0 | 0.02 | 0.21 | 0.14 | 94 | 1011.3 |
| 20260507081542 | 65 | 0 | 0.0 | 0.9 | 0.02 | 0.21 | 0.14 | 94 | 1011.2 |
| 20260507081011 | 65 | 0 | 0.0 | 0.9 | 0.03 | 0.21 | 0.14 | 94 | 1011.4 |
| 20260507080515 | 65 | 254 | 0.0 | 0.9 | 0.03 | 0.21 | 0.14 | 94 | 1011.0 |
| 20260507080030 | 65 | 0 | 0.0 | 4.3 | 0.02 | 0.20 | 0.13 | 94 | 1011.0 |
| 20260507075510 | 65 | 0 | 0.0 | 4.3 | 0.02 | 0.20 | 0.13 | 94 | 1011.2 |
| 20260507075017 | 65 | 259 | 1.7 | 4.3 | 0.03 | 0.20 | 0.13 | 94 | 1010.2 |
| 20260507074537 | 65 | 171 | 0.0 | 2.6 | 0.03 | 0.20 | 0.13 | 94 | 1010.8 |
| 20260507074009 | 65 | 0 | 0.0 | 0.0 | 0.03 | 0.20 | 0.13 | 94 | 1011.3 |
| 20260507073509 | 65 | 0 | 0.0 | 0.0 | 0.02 | 0.19 | 0.12 | 94 | 1011.6 |
| 20260507073035 | 65 | 0 | 0.0 | 0.0 | 0.02 | 0.19 | 0.12 | 94 | 1011.5 |
| 20260507072514 | 65 | 0 | 0.0 | 4.3 | 0.03 | 0.19 | 0.12 | 94 | 1011.6 |
| 20260507072009 | 65 | 0 | 0.0 | 4.3 | 0.03 | 0.19 | 0.12 | 94 | 1011.6 |
| 20260507071530 | 65 | 173 | 0.9 | 4.3 | 0.03 | 0.19 | 0.12 | 94 | 1011.3 |
| 20260507071009 | 65 | 178 | 0.9 | 3.5 | 0.03 | 0.18 | 0.11 | 94 | 1011.3 |
| 20260507070512 | 65 | 180 | 0.9 | 3.5 | 0.03 | 0.18 | 0.11 | 93 | 1011.4 |
| 20260507070036 | 65 | 0 | 0.0 | 2.6 | 0.03 | 0.18 | 0.11 | 93 | 1011.6 |
| 20260507065513 | 65 | 0 | 0.9 | 1.7 | 0.03 | 0.18 | 0.11 | 93 | 1011.9 |
| 20260507065015 | 65 | 178 | 0.0 | 1.7 | 0.03 | 0.17 | 0.10 | 93 | 1011.8 |
| 20260507064533 | 65 | 0 | 0.0 | 0.0 | 0.03 | 0.17 | 0.10 | 93 | 1011.8 |
| 20260507064011 | 65 | 0 | 0.0 | 0.0 | 0.04 | 0.17 | 0.10 | 93 | 1011.7 |
| 20260507063514 | 65 | 0 | 0.0 | 0.0 | 0.04 | 0.17 | 0.10 | 93 | 1011.8 |
| 20260507063032 | 65 | 0 | 0.0 | 0.9 | 0.04 | 0.17 | 0.10 | 93 | 1011.8 |
| 20260507062515 | 65 | 0 | 0.0 | 0.9 | 0.04 | 0.16 | 0.09 | 93 | 1012.2 |
| 20260507062014 | 65 | 0 | 0.0 | 0.9 | 0.04 | 0.16 | 0.09 | 93 | 1012.4 |
| 20260507061534 | 65 | 0 | 0.0 | 0.9 | 0.05 | 0.16 | 0.09 | 92 | 1012.2 |
| 20260507061012 | 65 | 0 | 0.0 | 0.0 | 0.04 | 0.15 | 0.08 | 92 | 1012.5 |
| 20260507060510 | 65 | 0 | 0.0 | 0.0 | 0.04 | 0.15 | 0.08 | 92 | 1012.5 |
| 20260507060032 | 66 | 0 | 0.0 | 0.0 | 0.05 | 0.15 | 0.08 | 92 | 1012.6 |
| 20260507055510 | 66 | 0 | 0.0 | 0.9 | 0.06 | 0.15 | 0.08 | 92 | 1012.4 |
| 20260507055014 | 66 | 0 | 0.0 | 0.9 | 0.05 | 0.14 | 0.07 | 92 | 1012.3 |
| 20260507054529 | 66 | 0 | 0.0 | 0.9 | 0.05 | 0.14 | 0.07 | 92 | 1012.2 |
| 20260507054010 | 66 | 0 | 0.0 | 0.9 | 0.05 | 0.13 | 0.06 | 92 | 1012.3 |
| 20260507053512 | 66 | 0 | 0.0 | 3.5 | 0.05 | 0.13 | 0.06 | 92 | 1012.1 |
| 20260507053029 | 66 | 0 | 0.0 | 3.5 | 0.06 | 0.13 | 0.06 | 92 | 1011.6 |
| 20260507052509 | 66 | 0 | 0.0 | 2.6 | 0.05 | 0.12 | 0.05 | 92 | 1011.3 |
| 20260507052009 | 67 | 0 | 0.0 | 2.6 | 0.05 | 0.12 | 0.05 | 91 | 1011.6 |
| 20260507051532 | 67 | 0 | 0.0 | 2.6 | 0.04 | 0.11 | 0.04 | 91 | 1011.9 |
| 20260507051011 | 67 | 184 | 0.0 | 5.2 | 0.04 | 0.11 | 0.04 | 91 | 1011.9 |
| 20260507050511 | 67 | 0 | 0.0 | 5.2 | 0.03 | 0.10 | 0.03 | 91 | 1012.1 |
| 20260507050033 | 67 | 155 | 0.9 | 3.5 | 0.03 | 0.10 | 0.03 | 91 | 1012.3 |
| 20260507045510 | 68 | 0 | 0.0 | 0.9 | 0.02 | 0.09 | 0.02 | 90 | 1014.2 |
| 20260507045013 | 68 | 0 | 0.0 | 0.9 | 0.03 | 0.09 | 0.02 | 90 | 1013.9 |